SEEDS II (CO-66)

Last updated on Wed Sep 09 2026 00:03:15 GMT+0000 (Coordinated Universal Time)

1 32791U 08021J 26251.56152754 .00019908 00000+0 58112-3 0 9990 2 32791 97.7561 253.6311 0003705 53.9501 306.2084 15.35365352 65
UTC large
Height (km)
Speed (km/s)
/
Latitude / Longitude
Inclination (degrees)
Orbital Period (minutes)
Azimuth
Elevation
Range (km)
Doppler Factor

Next 0 passes for location: London (51.5072 / 0.1276)

No passes found over London.
SEEDS II (CO-66)